Location: Arpaise
(41.0333°N, 14.7333°E)
Time: 17:06:49
(UTC+00:00)

Cosmos 2333 Rocket - Pass Details

Date: 05 July 2020
Orbit: 837 x 864 km, 70.8° (Epoch: 10 August)

Event Time Altitude Azimuth Distance (km) Brightness Sun altitude
Exits shadow 20:39:20 - 205° (SSW) 2,871 4.7 -17.8°
Reaches altitude 10° 20:40:25 10° 206° (SSW) 2,457 4.3 -17.9°
Maximum altitude 20:46:04 82° 293° (WNW) 862 2.2 -18.5°
Drops below altitude 10° 20:51:49 10° 22° (NNE) 2,491 5.1 -19.1°
Sets 20:54:17 0° 24° (NNE) 3,435 5.9 -19.4°
